M I D A S
Marine Information and Data Acquisition System
Tripno 1491 of the Zeeleeuw from 2008-05-23 06:41:36 to 2008-05-23 13:12:48
Back to CruiseResearch ActivitiesStationsMapUnderway DataData graphs

EquipmentUnitsComment
TimeDGPSUTC
LatitudeDGPSDM.mWGS84
LongitudeDGPSDM.mWGS84
TemperatureSBE03/SBE38deg celciusITS90
ConductivitySBE21S/mITS90
SalinitySBE21 Practical Salinity Units
ChlorophylAChelsea fluorimeterg/lCalibrated in Aceton
Missing or incorrect values are displayed as -999
Sea surface data collected by the RV Zeeleeuw from 2008-05-23 06:42:27 to 2008-05-23 13:19:42
Time Latitude Longitude Temperature Conductivity Salinity ChlorophylA
2008-05-23 06:43:32 51°13.623 2°56.043 18.6643 0.00969 0.054754 -1.731873
2008-05-23 06:44:32 51°13.641 2°55.964 18.7262 0.00969 0.054756 -1.731873
2008-05-23 06:45:33 51°13.678 2°55.854 18.7439 0.00969 0.054758 -1.731873
2008-05-23 06:46:33 51°13.735 2°55.75 18.7474 0.00969 0.054761 -1.766697
2008-05-23 06:47:32 51°13.802 2°55.669 18.741 0.00969 0.054763 -1.766697
2008-05-23 06:48:32 51°13.883 2°55.634 18.7561 0.00969 0.054766 -1.731873
2008-05-23 06:49:32 51°13.934 2°55.653 18.691 0.00969 0.054769 -1.731873
2008-05-23 06:50:32 51°13.974 2°55.555 18.6797 0.00969 0.054769 -1.766697
2008-05-23 06:51:32 51°14.1 2°55.444 18.7099 0.00969 0.054771 -1.731873
2008-05-23 06:52:32 51°14.253 2°55.273 18.695 0.00969 0.054774 -1.731873
2008-05-23 06:53:32 51°14.39 2°55.041 18.5796 0.00969 0.054777 -1.731873
2008-05-23 06:54:33 51°14.563 2°54.856 18.669 0.00969 0.054779 -1.731873
2008-05-23 06:55:32 51°14.741 2°54.715 18.6735 0.009587 0.054255 -1.766697
2008-05-23 06:56:32 51°14.919 2°54.564 18.6707 0.00969 0.054786 -1.766697
2008-05-23 06:57:32 51°15.095 2°54.417 18.6462 0.00969 0.054788 -1.731873
2008-05-23 06:58:32 51°15.275 2°54.27 18.6531 0.00969 0.05479 -1.766697
2008-05-23 06:59:31 51°15.453 2°54.124 18.6736 0.009587 0.054263 -1.731873
2008-05-23 07:00:30 51°15.629 2°53.968 18.6534 0.009587 0.054264 -1.731873
2008-05-23 07:01:29 51°15.806 2°53.813 18.6849 0.00969 0.054794 -1.766697
2008-05-23 07:02:29 51°15.984 2°53.649 18.6656 0.00969 0.054796 -1.731873
2008-05-23 07:03:29 51°16.16 2°53.476 18.6559 0.009587 0.054268 -1.731873
2008-05-23 07:04:29 51°16.333 2°53.291 18.6436 0.009587 0.054269 -1.766697
2008-05-23 07:05:29 51°16.506 2°53.108 18.6707 0.009587 0.05427 -1.731873
2008-05-23 07:06:29 51°16.68 2°52.927 18.6703 0.009587 0.054272 -1.731873
2008-05-23 07:07:29 51°16.854 2°52.75 18.6525 0.009587 0.054273 -1.731873
2008-05-23 07:08:29 51°17.027 2°52.573 18.6374 0.009587 0.054274 -1.766697
2008-05-23 07:09:29 51°17.217 2°52.466 18.6753 0.00969 0.054803 -1.731873
2008-05-23 07:10:29 51°17.415 2°52.4 18.6702 0.009587 0.054277 -1.766697
2008-05-23 07:11:29 51°17.615 2°52.353 18.6963 0.009587 0.054278 -1.766697
2008-05-23 07:12:29 51°17.814 2°52.322 18.6898 0.009587 0.054279 -1.731873
2008-05-23 07:13:29 51°18.013 2°52.285 18.6933 0.009587 0.05428 -1.731873
2008-05-23 07:14:29 51°18.21 2°52.225 18.7112 0.009587 0.054282 -1.731873
2008-05-23 07:15:29 51°18.408 2°52.167 18.7244 0.009587 0.054282 -1.731873
2008-05-23 07:16:29 51°18.606 2°52.108 18.7234 0.009587 0.054284 -1.731873
2008-05-23 07:17:29 51°18.805 2°52.047 18.7209 0.009587 0.054285 -1.731873
2008-05-23 07:18:29 51°19.004 2°51.99 18.7465 0.009587 0.054286 -1.731873
2008-05-23 07:19:29 51°19.205 2°51.937 18.7452 0.009587 0.054288 -1.731873
2008-05-23 07:20:29 51°19.406 2°51.888 18.7433 0.009587 0.054289 -1.766697
2008-05-23 07:21:29 51°19.608 2°51.844 18.7552 0.009587 0.05429 -1.766697
2008-05-23 07:22:29 51°19.807 2°51.794 18.751 0.009587 0.054291 -1.766697
2008-05-23 07:23:29 51°20.007 2°51.754 18.7612 0.009587 0.054293 -1.731873
2008-05-23 07:24:29 51°20.209 2°51.729 18.7693 0.009587 0.054294 -1.731873
2008-05-23 07:25:29 51°20.411 2°51.69 18.7987 0.009587 0.054296 -1.731873
2008-05-23 07:26:29 51°20.616 2°51.647 18.7969 0.009587 0.054297 -1.731873
2008-05-23 07:27:29 51°20.82 2°51.591 18.8144 0.009587 0.054299 -1.731873
2008-05-23 07:28:29 51°21.025 2°51.539 18.8072 0.009587 0.054299 -1.731873
2008-05-23 07:29:29 51°21.231 2°51.504 18.8289 0.009587 0.0543 -1.731873
2008-05-23 07:30:29 51°21.436 2°51.47 18.8331 0.009587 0.054301 -1.731873
2008-05-23 07:31:29 51°21.636 2°51.448 18.8437 0.009587 0.054302 -1.731873
2008-05-23 07:32:29 51°21.835 2°51.419 18.8494 0.009587 0.054303 -1.731873
2008-05-23 07:33:29 51°22.035 2°51.371 18.855 0.009587 0.054304 -1.766697
2008-05-23 07:34:29 51°22.234 2°51.318 18.8779 0.009587 0.054305 -1.731873
2008-05-23 07:35:29 51°22.436 2°51.277 18.8845 0.009587 0.054305 -1.731873
2008-05-23 07:36:29 51°22.639 2°51.224 18.8922 0.009587 0.054307 -1.766697
2008-05-23 07:37:29 51°22.843 2°51.173 18.9002 0.009587 0.054307 -1.731873
2008-05-23 07:38:29 51°23.045 2°51.131 18.9032 0.009587 0.054308 -1.766697
2008-05-23 07:39:29 51°23.246 2°51.088 18.9211 0.009587 0.054309 -1.766697
2008-05-23 07:40:29 51°23.447 2°51.052 18.9135 0.009587 0.054309 -1.731873
2008-05-23 07:41:29 51°23.649 2°51.028 18.9281 0.009587 0.054311 -1.766697
2008-05-23 07:42:29 51°23.852 2°50.988 18.9226 0.009587 0.054311 -1.731873
2008-05-23 07:43:29 51°24.055 2°50.938 18.9523 0.009587 0.054312 -1.731873
2008-05-23 07:44:29 51°24.258 2°50.884 18.9655 0.009587 0.054313 -1.731873
2008-05-23 07:45:29 51°24.459 2°50.827 18.9689 0.009587 0.054314 -1.731873
2008-05-23 07:46:29 51°24.661 2°50.775 18.9612 0.009587 0.054315 -1.731873
2008-05-23 07:47:29 51°24.86 2°50.731 18.9995 0.009587 0.054315 -1.766697
2008-05-23 07:48:29 51°25.059 2°50.674 18.9843 0.009587 0.054316 -1.766697
2008-05-23 07:49:29 51°25.258 2°50.621 19.0066 0.009587 0.054317 -1.731873
2008-05-23 07:50:29 51°25.457 2°50.571 19.0083 0.009587 0.054317 -1.766697
2008-05-23 07:51:29 51°25.658 2°50.539 19.0149 0.009587 0.054317 -1.731873
2008-05-23 07:52:29 51°25.861 2°50.509 19.0365 0.009587 0.054317 -1.731873
2008-05-23 07:53:29 51°26.064 2°50.473 19.0464 0.009587 0.054319 -1.766697
2008-05-23 07:54:29 51°26.265 2°50.434 19.0432 0.009587 0.054319 -1.731873
2008-05-23 07:55:29 51°26.467 2°50.402 19.0603 0.009587 0.054319 -1.766697
2008-05-23 07:56:29 51°26.668 2°50.367 19.0558 0.009587 0.054319 -1.731873
2008-05-23 07:57:29 51°26.87 2°50.327 19.0707 0.009587 0.054319 -1.766697
2008-05-23 07:58:29 51°27.069 2°50.276 19.0705 0.009587 0.054319 -1.731873
2008-05-23 07:59:29 51°27.269 2°50.229 19.0797 0.009587 0.054319 -1.766697
2008-05-23 08:00:29 51°27.469 2°50.187 19.0955 0.009587 0.054319 -1.731873
2008-05-23 08:01:29 51°27.672 2°50.146 19.1047 0.009587 0.054319 -1.731873
2008-05-23 08:02:29 51°27.875 2°50.108 19.131 0.009587 0.054319 -1.766697
2008-05-23 08:03:29 51°28.078 2°50.073 19.1253 0.009587 0.054319 -1.731873
2008-05-23 08:04:29 51°28.278 2°50.045 19.1393 0.009587 0.054319 -1.731873
2008-05-23 08:05:29 51°28.478 2°50.003 19.1348 0.009587 0.054319 -1.731873
2008-05-23 08:06:29 51°28.678 2°49.955 19.1503 0.009587 0.054318 -1.731873
2008-05-23 08:07:29 51°28.879 2°49.92 19.1716 0.009587 0.054317 -1.766697
2008-05-23 08:08:29 51°29.079 2°49.869 19.1701 0.009587 0.054317 -1.766697
2008-05-23 08:09:29 51°29.283 2°49.823 19.172 0.009587 0.054317 -1.731873
2008-05-23 08:10:29 51°29.486 2°49.78 19.1975 0.009587 0.054316 -1.731873
2008-05-23 08:11:29 51°29.691 2°49.755 19.1672 0.009587 0.054315 -1.731873
2008-05-23 08:12:29 51°29.87 2°49.879 19.2084 0.009587 0.054316 -1.766697
2008-05-23 08:13:29 51°30.02 2°50.076 19.2204 0.009587 0.054317 -1.731873
2008-05-23 08:14:29 51°30.163 2°50.28 19.2173 0.009587 0.054317 -1.766697
2008-05-23 08:15:29 51°30.302 2°50.49 19.2383 0.009587 0.054316 -1.731873
2008-05-23 08:16:29 51°30.41 2°50.742 19.2486 0.009587 0.054315 -1.731873
2008-05-23 08:17:29 51°30.521 2°50.994 19.2444 0.009587 0.054314 -1.766697
2008-05-23 08:18:29 51°30.622 2°51.257 19.2495 0.009587 0.054313 -1.766697
2008-05-23 08:19:29 51°30.676 2°51.557 19.2656 0.009587 0.054312 -1.731873
2008-05-23 08:20:29 51°30.733 2°51.855 19.2822 0.009587 0.054312 -1.766697
2008-05-23 08:21:29 51°30.79 2°52.154 19.2668 0.009587 0.054311 -1.766697
2008-05-23 08:22:29 51°30.844 2°52.454 19.2984 0.009587 0.054311 -1.731873
2008-05-23 08:23:29 51°30.885 2°52.759 19.2897 0.009587 0.05431 -1.731873
2008-05-23 08:24:29 51°30.924 2°53.063 19.3073 0.009587 0.054309 -1.731873
2008-05-23 08:25:29 51°30.955 2°53.369 19.3259 0.009587 0.054309 -1.766697
2008-05-23 08:26:29 51°30.991 2°53.671 19.3348 0.009587 0.054308 -1.731873
2008-05-23 08:27:29 51°31.021 2°53.972 19.3315 0.009587 0.054307 -1.766697
2008-05-23 08:28:29 51°31.049 2°54.273 19.3339 0.009587 0.054306 -1.731873
2008-05-23 08:29:29 51°31.073 2°54.575 19.3667 0.009587 0.054306 -1.766697
2008-05-23 08:30:29 51°31.103 2°54.873 19.3621 0.00969 0.054835 -1.731873
2008-05-23 08:31:29 51°31.129 2°55.172 19.3722 0.009587 0.054305 -1.766697
2008-05-23 08:32:29 51°31.157 2°55.471 19.3794 0.00969 0.054833 -1.731873
2008-05-23 08:33:29 51°31.187 2°55.769 19.3758 0.009587 0.054303 -1.766697
2008-05-23 08:34:29 51°31.215 2°56.068 19.3851 0.00969 0.054831 -1.731873
2008-05-23 08:35:29 51°31.246 2°56.366 19.4 0.00969 0.054831 -1.731873
2008-05-23 08:36:29 51°31.276 2°56.664 19.4094 0.009587 0.054301 -1.731873
2008-05-23 08:37:29 51°31.309 2°56.961 19.4327 0.00969 0.054829 -1.731873
2008-05-23 08:38:29 51°31.352 2°57.257 19.4448 0.00969 0.054829 -1.766697
2008-05-23 08:39:29 51°31.437 2°57.52 19.4429 0.00969 0.054828 -1.731873
2008-05-23 08:40:29 51°31.559 2°57.748 19.446 0.00969 0.054827 -1.731873
2008-05-23 08:41:29 51°31.68 2°57.977 19.4727 0.00969 0.054824 -1.766697
2008-05-23 08:42:29 51°31.812 2°58.187 19.4476 0.00969 0.054823 -1.731873
2008-05-23 08:43:29 51°31.941 2°58.405 19.4695 0.00969 0.054822 -1.766697
2008-05-23 08:44:29 51°32.074 2°58.618 19.4855 0.00969 0.05482 -1.731873
2008-05-23 08:45:29 51°32.21 2°58.823 19.4803 0.00969 0.054819 -1.766697
2008-05-23 08:46:29 51°32.344 2°59.03 19.4999 0.00969 0.054818 -1.731873
2008-05-23 08:47:29 51°32.501 2°59.186 19.5067 0.00969 0.054817 -1.731873
2008-05-23 08:48:29 51°32.681 2°59.271 19.5125 0.00969 0.054816 -1.766697
2008-05-23 08:49:29 51°32.856 2°59.37 19.5238 0.00969 0.054815 -1.731873
2008-05-23 08:50:29 51°33.027 2°59.487 19.5217 0.00969 0.054814 -1.731873
2008-05-23 08:51:29 51°33.198 2°59.606 19.5429 0.00969 0.054814 -1.766697
2008-05-23 08:52:29 51°33.372 2°59.716 19.5335 0.00969 0.054814 -1.731873
2008-05-23 08:53:29 51°33.541 2°59.833 19.5596 0.00969 0.054814 -1.731873
2008-05-23 08:54:29 51°33.711 2°59.961 19.5699 0.00969 0.054814 -1.766697
2008-05-23 08:55:29 51°33.88 3°0.084 19.5666 0.00969 0.054814 -1.731873
2008-05-23 08:56:29 51°34.053 3°0.187 19.5874 0.00969 0.054813 -1.766697
2008-05-23 08:57:29 51°34.238 3°0.227 19.5898 0.00969 0.054812 -1.766697
2008-05-23 08:58:29 51°34.428 3°0.237 19.5895 0.00969 0.054812 -1.766697
2008-05-23 08:59:29 51°34.617 3°0.198 19.6239 0.00969 0.054812 -1.766697
2008-05-23 09:00:29 51°34.789 3°0.031 19.6097 0.00969 0.054809 -1.766697
2008-05-23 09:01:29 51°34.956 2°59.84 19.6217 0.00969 0.054808 -1.731873
2008-05-23 09:02:29 51°35.119 2°59.637 19.6253 0.00969 0.054807 -1.766697
2008-05-23 09:03:29 51°35.282 2°59.431 19.6309 0.00969 0.054807 -1.731873
2008-05-23 09:04:29 51°35.431 2°59.205 19.6429 0.00969 0.054806 -1.731873
2008-05-23 09:05:29 51°35.551 2°58.932 19.6652 0.00969 0.054806 -1.731873
2008-05-23 09:06:29 51°35.551 2°58.58 19.6739 0.00969 0.054805 -1.766697
2008-05-23 09:07:29 51°35.46 2°58.247 19.6584 0.00969 0.054805 -1.731873
2008-05-23 09:08:29 51°35.34 2°57.928 19.6798 0.00969 0.054805 -1.766697
2008-05-23 09:09:29 51°35.22 2°57.607 19.6558 0.00969 0.054806 -1.731873
2008-05-23 09:10:29 51°35.093 2°57.289 19.696 0.00969 0.054806 -1.731873
2008-05-23 09:11:29 51°34.97 2°56.968 19.7133 0.00969 0.054805 -1.731873
2008-05-23 09:12:29 51°34.85 2°56.643 19.6979 0.00969 0.054805 -1.731873
2008-05-23 09:13:29 51°34.736 2°56.311 19.7235 0.00969 0.054805 -1.731873
2008-05-23 09:14:29 51°34.617 2°55.984 19.7289 0.00969 0.054805 -1.766697
2008-05-23 09:15:29 51°34.475 2°55.682 19.7342 0.00969 0.054804 -1.766697
2008-05-23 09:16:29 51°34.334 2°55.38 19.7241 0.00969 0.054803 -1.731873
2008-05-23 09:17:29 51°34.191 2°55.076 19.7414 0.00969 0.054803 -1.731873
2008-05-23 09:18:29 51°34.052 2°54.769 19.7639 0.00969 0.054802 -1.766697
2008-05-23 09:19:29 51°33.914 2°54.459 19.7769 0.00969 0.054801 -1.731873
2008-05-23 09:20:29 51°33.776 2°54.149 19.7845 0.00969 0.054801 -1.731873
2008-05-23 09:21:29 51°33.639 2°53.837 19.7552 0.00969 0.0548 -1.766697
2008-05-23 09:22:29 51°33.498 2°53.533 19.7614 0.00969 0.054799 -1.731873
2008-05-23 09:23:29 51°33.356 2°53.229 19.7849 0.00969 0.054797 -1.766697
2008-05-23 09:24:29 51°33.22 2°52.918 19.8203 0.00969 0.054797 -1.766697
2008-05-23 09:25:29 51°33.081 2°52.612 19.8008 0.00969 0.054797 -1.731873
2008-05-23 09:26:29 51°32.948 2°52.298 19.8129 0.00969 0.054795 -1.766697
2008-05-23 09:27:29 51°32.813 2°51.986 19.8492 0.00969 0.054794 -1.766697
2008-05-23 09:28:29 51°32.672 2°51.681 19.8249 0.00969 0.054793 -1.766697
2008-05-23 09:29:29 51°32.532 2°51.375 19.8254 0.00969 0.054793 -1.731873
2008-05-23 09:30:29 51°32.428 2°51.039 19.8509 0.00969 0.054792 -1.766697
2008-05-23 09:31:29 51°32.384 2°50.675 19.8105 0.00969 0.054791 -1.766697
2008-05-23 09:32:29 51°32.425 2°50.328 19.8469 0.00969 0.05479 -1.731873
2008-05-23 09:33:29 51°32.558 2°50.074 19.8651 0.00969 0.05479 -1.731873
2008-05-23 09:34:29 51°32.723 2°49.884 19.8974 0.00969 0.05479 -1.731873
2008-05-23 09:35:29 51°32.886 2°49.688 19.8977 0.00969 0.054788 -1.766697
2008-05-23 09:36:29 51°33.05 2°49.49 19.8738 0.00969 0.054786 -1.731873
2008-05-23 09:37:29 51°33.216 2°49.295 19.9069 0.00969 0.054786 -1.766697
2008-05-23 09:38:29 51°33.377 2°49.088 19.8994 0.00969 0.054784 -1.766697
2008-05-23 09:39:29 51°33.546 2°48.898 19.8933 0.00969 0.054783 -1.731873
2008-05-23 09:40:29 51°33.726 2°48.749 19.9201 0.00969 0.054782 -1.766697
2008-05-23 09:41:29 51°33.909 2°48.609 19.9147 0.00969 0.054781 -1.766697
2008-05-23 09:42:29 51°34.091 2°48.472 19.9271 0.00969 0.054779 -1.731873
2008-05-23 09:43:29 51°34.274 2°48.356 19.9451 0.00969 0.054779 -1.731873
2008-05-23 09:44:29 51°34.456 2°48.246 19.948 0.00969 0.054777 -1.766697
2008-05-23 09:45:29 51°34.639 2°48.14 19.948 0.00969 0.054777 -1.766697
2008-05-23 09:46:29 51°34.821 2°48.037 19.9567 0.00969 0.054775 -1.766697
2008-05-23 09:47:29 51°35.005 2°47.938 19.9622 0.00969 0.054775 -1.731873
2008-05-23 09:48:29 51°35.187 2°47.848 19.9283 0.00969 0.054773 -1.766697
2008-05-23 09:49:29 51°35.313 2°48.012 19.9925 0.00969 0.054773 -1.766697
2008-05-23 09:50:29 51°35.436 2°48.218 19.9776 0.00969 0.054772 -1.766697
2008-05-23 09:51:29 51°35.56 2°48.429 19.9972 0.00969 0.054771 -1.731873
2008-05-23 09:52:29 51°35.683 2°48.642 19.9756 0.00969 0.054769 -1.766697
2008-05-23 09:53:29 51°35.81 2°48.847 19.9963 0.00969 0.054769 -1.731873
2008-05-23 09:54:29 51°35.933 2°49.052 19.9953 0.00969 0.054767 -1.731873
2008-05-23 09:55:29 51°36.048 2°49.272 19.9951 0.00969 0.054766 -1.766697
2008-05-23 09:56:29 51°36.168 2°49.484 20.0143 0.00969 0.054765 -1.731873
2008-05-23 09:57:29 51°36.29 2°49.69 20.0135 0.00969 0.054765 -1.731873
2008-05-23 09:58:29 51°36.408 2°49.904 20.016 0.00969 0.054764 -1.766697
2008-05-23 09:59:29 51°36.523 2°50.11 20.0296 0.00969 0.054763 -1.731873
2008-05-23 10:00:29 51°36.642 2°50.317 20.0332 0.00969 0.054763 -1.731873
2008-05-23 10:01:29 51°36.758 2°50.529 20.0273 0.00969 0.054762 -1.766697
2008-05-23 10:02:29 51°36.877 2°50.737 20.0484 0.00969 0.054762 -1.766697
2008-05-23 10:03:29 51°36.999 2°50.945 20.0561 0.00969 0.05476 -1.731873
2008-05-23 10:04:29 51°37.12 2°51.153 20.0645 0.00969 0.05476 -1.766697
2008-05-23 10:05:29 51°37.253 2°51.332 20.0612 0.00969 0.054759 -1.731873
2008-05-23 10:06:29 51°37.425 2°51.409 20.0592 0.00969 0.054758 -1.731873
2008-05-23 10:07:29 51°37.61 2°51.383 20.0929 0.00969 0.054756 -1.731873
2008-05-23 10:08:29 51°37.787 2°51.259 20.0796 0.00969 0.054754 -1.731873
2008-05-23 10:09:29 51°37.958 2°51.098 20.0836 0.00969 0.054753 -1.766697
2008-05-23 10:10:29 51°38.12 2°50.905 20.093 0.00969 0.054751 -1.731873
2008-05-23 10:11:29 51°38.285 2°50.721 20.08 0.00969 0.05475 -1.766697
2008-05-23 10:12:29 51°38.452 2°50.542 20.081 0.00969 0.05475 -1.731873
2008-05-23 10:13:29 51°38.62 2°50.363 20.0941 0.00969 0.054749 -1.731873
2008-05-23 10:14:29 51°38.786 2°50.188 20.1006 0.00969 0.054748 -1.731873
2008-05-23 10:15:29 51°38.956 2°50.029 20.1121 0.00969 0.054747 -1.766697
2008-05-23 10:16:29 51°39.122 2°49.864 20.1101 0.00969 0.054745 -1.766697
2008-05-23 10:17:29 51°39.295 2°49.777 20.1195 0.00969 0.054746 -1.731873
2008-05-23 10:18:29 51°39.474 2°49.806 20.1196 0.00969 0.054745 -1.766697
2008-05-23 10:19:29 51°39.657 2°49.818 20.1273 0.00969 0.054745 -1.766697
2008-05-23 10:20:29 51°39.838 2°49.839 20.1203 0.00969 0.054744 -1.766697
2008-05-23 10:21:29 51°40.02 2°49.86 20.1454 0.00969 0.054743 -1.766697
2008-05-23 10:22:29 51°40.201 2°49.892 20.1493 0.00969 0.054743 -1.766697
2008-05-23 10:23:29 51°40.379 2°49.932 20.1513 0.00969 0.054741 -1.731873
2008-05-23 10:24:29 51°40.557 2°49.974 20.1499 0.00969 0.054741 -1.766697
2008-05-23 10:25:29 51°40.737 2°50.023 20.1584 0.00969 0.05474 -1.731873
2008-05-23 10:26:29 51°40.912 2°50.085 20.1402 0.00969 0.054739 -1.766697
2008-05-23 10:27:29 51°40.942 2°50.34 20.1541 0.00969 0.054739 -1.731873
2008-05-23 10:28:29 51°40.83 2°50.613 20.1633 0.00969 0.054737 -1.766697
2008-05-23 10:29:29 51°40.713 2°50.886 20.1775 0.00969 0.054738 -1.731873
2008-05-23 10:30:29 51°40.604 2°51.163 20.1654 0.00969 0.054737 -1.731873
2008-05-23 10:31:29 51°40.461 2°51.407 20.204 0.00969 0.054737 -1.731873
2008-05-23 10:32:29 51°40.311 2°51.64 20.19 0.00969 0.054737 -1.766697
2008-05-23 10:33:29 51°40.166 2°51.879 20.2235 0.00969 0.054738 -1.731873
2008-05-23 10:34:29 51°40.031 2°52.129 20.1831 0.00969 0.054739 -1.731873
2008-05-23 10:35:29 51°39.901 2°52.38 20.221 0.00969 0.054739 -1.766697
2008-05-23 10:36:29 51°39.768 2°52.626 20.1978 0.00969 0.05474 -1.731873
2008-05-23 10:37:29 51°39.631 2°52.869 20.2214 0.00969 0.054741 -1.766697
2008-05-23 10:38:29 51°39.497 2°53.118 20.2252 0.00969 0.054742 -1.766697
2008-05-23 10:39:29 51°39.36 2°53.362 20.2409 0.00969 0.054743 -1.731873
2008-05-23 10:40:29 51°39.227 2°53.61 20.2272 0.00969 0.054744 -1.731873
2008-05-23 10:41:29 51°39.093 2°53.857 20.2502 0.00969 0.054745 -1.731873
2008-05-23 10:42:29 51°38.955 2°54.1 20.2362 0.00969 0.054746 -1.766697
2008-05-23 10:43:29 51°38.816 2°54.344 20.2485 0.00969 0.054748 -1.766697
2008-05-23 10:44:29 51°38.683 2°54.595 20.2595 0.00969 0.054748 -1.731873
2008-05-23 10:45:29 51°38.547 2°54.845 20.2524 0.00969 0.054749 -1.766697
2008-05-23 10:46:29 51°38.412 2°55.097 20.2394 0.00969 0.05475 -1.731873
2008-05-23 10:47:29 51°38.26 2°55.333 20.2705 0.00969 0.05475 -1.766697
2008-05-23 10:48:29 51°38.108 2°55.567 20.267 0.00969 0.054751 -1.731873
2008-05-23 10:49:29 51°37.957 2°55.806 20.2586 0.00969 0.054752 -1.731873
2008-05-23 10:50:29 51°37.788 2°56.017 20.2732 0.00969 0.054752 -1.731873
2008-05-23 10:51:29 51°37.568 2°56.079 20.2625 0.00969 0.054753 -1.766697
2008-05-23 10:52:29 51°37.347 2°55.978 20.279 0.00969 0.054754 -1.766697
2008-05-23 10:53:29 51°37.169 2°55.747 20.3039 0.00969 0.054754 -1.731873
2008-05-23 10:54:29 51°37.065 2°55.425 20.3177 0.00969 0.054755 -1.766697
2008-05-23 10:55:29 51°36.965 2°55.099 20.3369 0.00969 0.054754 -1.766697
2008-05-23 10:56:29 51°36.861 2°54.775 20.3 0.00969 0.054753 -1.731873
2008-05-23 10:57:29 51°36.751 2°54.454 20.3243 0.00969 0.054752 -1.766697
2008-05-23 10:58:29 51°36.644 2°54.131 20.3275 0.00969 0.054752 -1.731873
2008-05-23 10:59:29 51°36.54 2°53.807 20.3305 0.00969 0.054751 -1.766697
2008-05-23 11:00:29 51°36.436 2°53.483 20.323 0.00969 0.05475 -1.731873
2008-05-23 11:01:29 51°36.333 2°53.159 20.3425 0.00969 0.054748 -1.731873
2008-05-23 11:02:29 51°36.232 2°52.834 20.3342 0.00969 0.054746 -1.731873
2008-05-23 11:03:29 51°36.129 2°52.512 20.3669 0.00969 0.054745 -1.766697
2008-05-23 11:04:29 51°35.959 2°52.277 20.3558 0.00969 0.054743 -1.766697
2008-05-23 11:05:29 51°35.741 2°52.188 20.3484 0.00969 0.054742 -1.766697
2008-05-23 11:06:29 51°35.522 2°52.241 20.3284 0.00969 0.054741 -1.731873
2008-05-23 11:07:29 51°35.309 2°52.337 20.3453 0.00969 0.054739 -1.731873
2008-05-23 11:08:29 51°35.094 2°52.413 20.3659 0.00969 0.054739 -1.731873
2008-05-23 11:09:29 51°34.889 2°52.505 20.3906 0.00969 0.05474 -1.766697
2008-05-23 11:10:29 51°34.737 2°52.71 20.3493 0.00969 0.05474 -1.766697
2008-05-23 11:11:29 51°34.678 2°52.985 20.3972 0.00969 0.05474 -1.766697
2008-05-23 11:12:29 51°34.746 2°53.235 20.3528 0.00969 0.054741 -1.731873
2008-05-23 11:13:29 51°34.848 2°53.467 20.3755 0.00969 0.054741 -1.766697
2008-05-23 11:14:29 51°34.938 2°53.711 20.37 0.00969 0.054741 -1.731873
2008-05-23 11:15:29 51°35.024 2°53.96 20.3878 0.00969 0.05474 -1.731873
2008-05-23 11:16:29 51°35.117 2°54.206 20.3709 0.00969 0.05474 -1.731873
2008-05-23 11:17:29 51°35.202 2°54.461 20.3945 0.00969 0.054739 -1.766697
2008-05-23 11:18:29 51°35.291 2°54.712 20.4016 0.00969 0.054738 -1.766697
2008-05-23 11:19:29 51°35.375 2°54.969 20.3995 0.00969 0.054736 -1.766697
2008-05-23 11:20:29 51°35.459 2°55.226 20.3997 0.00969 0.054735 -1.766697
2008-05-23 11:21:29 51°35.538 2°55.489 20.4014 0.00969 0.054735 -1.731873
2008-05-23 11:22:29 51°35.621 2°55.747 20.4043 0.00969 0.054735 -1.766697
2008-05-23 11:23:29 51°35.704 2°56.006 20.3977 0.00969 0.054735 -1.766697
2008-05-23 11:24:29 51°35.779 2°56.269 20.4062 0.00969 0.054735 -1.731873
2008-05-23 11:25:29 51°35.776 2°56.57 20.3914 0.00969 0.054734 -1.731873
2008-05-23 11:26:29 51°35.69 2°56.842 20.4109 0.00969 0.054734 -1.766697
2008-05-23 11:27:29 51°35.506 2°56.976 20.4139 0.00969 0.054735 -1.731873
2008-05-23 11:28:29 51°35.298 2°56.882 20.4136 0.00969 0.054735 -1.766697
2008-05-23 11:29:29 51°35.113 2°56.667 20.4589 0.00969 0.054736 -1.731873
2008-05-23 11:30:29 51°34.923 2°56.462 20.4561 0.00969 0.054736 -1.766697
2008-05-23 11:31:29 51°34.73 2°56.268 20.4441 0.00969 0.054736 -1.731873
2008-05-23 11:32:29 51°34.539 2°56.065 20.4486 0.00969 0.054735 -1.731873
2008-05-23 11:33:29 51°34.353 2°55.85 20.4305 0.00969 0.054735 -1.766697
2008-05-23 11:34:29 51°34.166 2°55.634 20.4784 0.00969 0.054733 -1.766697
2008-05-23 11:35:29 51°33.975 2°55.431 20.4622 0.00969 0.054733 -1.731873
2008-05-23 11:36:29 51°33.783 2°55.228 20.4785 0.00969 0.054731 -1.731873
2008-05-23 11:37:29 51°33.593 2°55.022 20.4905 0.00969 0.05473 -1.766697
2008-05-23 11:38:29 51°33.403 2°54.82 20.4777 0.00969 0.054728 -1.731873
2008-05-23 11:39:29 51°33.214 2°54.612 20.4722 0.00969 0.054727 -1.731873
2008-05-23 11:40:29 51°33.023 2°54.414 20.5096 0.00969 0.054726 -1.731873
2008-05-23 11:41:29 51°32.831 2°54.24 20.6006 0.00969 0.054724 -1.731873
2008-05-23 11:42:29 51°32.645 2°54.368 20.486 0.00969 0.054722 -1.766697
2008-05-23 11:43:29 51°32.457 2°54.535 20.528 0.00969 0.05472 -1.766697
2008-05-23 11:44:29 51°32.268 2°54.704 20.5125 0.00969 0.05472 -1.766697
2008-05-23 11:45:29 51°32.077 2°54.868 20.5068 0.00969 0.05472 -1.731873
2008-05-23 11:46:29 51°31.886 2°55.033 20.5442 0.00969 0.05472 -1.731873
2008-05-23 11:47:29 51°31.699 2°55.209 20.5304 0.00969 0.05472 -1.731873
2008-05-23 11:48:29 51°31.512 2°55.389 20.5069 0.00969 0.05472 -1.731873
2008-05-23 11:49:29 51°31.319 2°55.554 20.4938 0.00969 0.054722 -1.766697
2008-05-23 11:50:29 51°31.099 2°55.585 20.5259 0.00969 0.054723 -1.731873
2008-05-23 11:51:29 51°30.877 2°55.562 20.5199 0.00969 0.054724 -1.766697
2008-05-23 11:52:29 51°30.663 2°55.495 20.5686 0.00969 0.054724 -1.766697
2008-05-23 11:53:29 51°30.45 2°55.439 20.5363 0.00969 0.054726 -1.766697
2008-05-23 11:54:29 51°30.234 2°55.411 20.5596 0.00969 0.054725 -1.731873
2008-05-23 11:55:29 51°30.023 2°55.381 20.5863 0.00969 0.054725 -1.731873
2008-05-23 11:56:29 51°29.804 2°55.355 20.5818 0.00969 0.054726 -1.766697
2008-05-23 11:57:29 51°29.583 2°55.316 20.4656 0.00969 0.054726 -1.731873
2008-05-23 11:58:29 51°29.36 2°55.277 20.5375 0.00969 0.054726 -1.766697
2008-05-23 11:59:29 51°29.137 2°55.235 20.5394 0.00969 0.054727 -1.766697
2008-05-23 12:00:29 51°28.916 2°55.172 20.5456 0.00969 0.054728 -1.731873
2008-05-23 12:01:29 51°28.695 2°55.115 20.5489 0.00969 0.054731 -1.731873
2008-05-23 12:02:29 51°28.473 2°55.056 20.5537 0.00969 0.054731 -1.766697
2008-05-23 12:03:29 51°28.252 2°55.011 20.5476 0.00969 0.054732 -1.766697
2008-05-23 12:04:29 51°28.032 2°54.953 20.5536 0.00969 0.054732 -1.731873
2008-05-23 12:05:29 51°27.815 2°54.887 20.5572 0.00969 0.054732 -1.731873
2008-05-23 12:06:29 51°27.599 2°54.832 20.196 0.00969 0.054731 -1.766697
2008-05-23 12:07:29 51°27.384 2°54.778 20.318 0.00969 0.05473 -1.766697
2008-05-23 12:08:29 51°27.169 2°54.706 20.2997 0.00969 0.054729 -1.766697
2008-05-23 12:09:29 51°26.953 2°54.65 20.3338 0.00969 0.054729 -1.731873
2008-05-23 12:10:29 51°26.735 2°54.596 20.3487 0.00969 0.054729 -1.766697
2008-05-23 12:11:29 51°26.516 2°54.546 20.3859 0.00969 0.054728 -1.766697
2008-05-23 12:12:29 51°26.299 2°54.493 20.3564 0.00969 0.054728 -1.731873
2008-05-23 12:13:29 51°26.082 2°54.44 20.3854 0.00969 0.054726 -1.731873
2008-05-23 12:14:29 51°25.863 2°54.401 20.4001 0.00969 0.054726 -1.731873
2008-05-23 12:15:29 51°25.645 2°54.339 20.3865 0.00969 0.054724 -1.731873
2008-05-23 12:16:29 51°25.426 2°54.281 20.4017 0.00969 0.054724 -1.731873
2008-05-23 12:17:29 51°25.208 2°54.224 20.4396 0.00969 0.054723 -1.766697
2008-05-23 12:18:29 51°24.991 2°54.165 20.4202 0.00969 0.054722 -1.731873
2008-05-23 12:19:29 51°24.776 2°54.098 20.4127 0.00969 0.054721 -1.731873
2008-05-23 12:20:29 51°24.56 2°54.05 20.4509 0.00969 0.05472 -1.731873
2008-05-23 12:21:29 51°24.344 2°54 20.4395 0.00969 0.05472 -1.766697
2008-05-23 12:22:29 51°24.133 2°53.921 20.4737 0.00969 0.05472 -1.731873
2008-05-23 12:23:29 51°23.923 2°53.848 20.4614 0.00969 0.05472 -1.731873
2008-05-23 12:24:29 51°23.714 2°53.806 20.4881 0.00969 0.054718 -1.731873
2008-05-23 12:25:29 51°23.506 2°53.77 20.4863 0.00969 0.054717 -1.766697
2008-05-23 12:26:29 51°23.298 2°53.73 20.4858 0.00969 0.054716 -1.731873
2008-05-23 12:27:29 51°23.09 2°53.693 20.4932 0.00969 0.054716 -1.766697
2008-05-23 12:28:29 51°22.883 2°53.661 20.5181 0.00969 0.054715 -1.731873
2008-05-23 12:29:29 51°22.677 2°53.608 20.5116 0.00969 0.054714 -1.766697
2008-05-23 12:30:29 51°22.47 2°53.568 20.5145 0.00969 0.054713 -1.731873
2008-05-23 12:31:29 51°22.264 2°53.527 20.5229 0.00969 0.054712 -1.731873
2008-05-23 12:32:29 51°22.057 2°53.476 20.5262 0.00969 0.054711 -1.731873
2008-05-23 12:33:29 51°21.854 2°53.416 20.5325 0.00969 0.05471 -1.731873
2008-05-23 12:34:29 51°21.651 2°53.354 20.5428 0.00969 0.054708 -1.731873
2008-05-23 12:35:29 51°21.445 2°53.298 20.5489 0.00969 0.054707 -1.731873
2008-05-23 12:36:29 51°21.24 2°53.24 20.5544 0.00969 0.054705 -1.766697
2008-05-23 12:37:29 51°21.036 2°53.186 20.5598 0.00969 0.054703 -1.766697
2008-05-23 12:38:29 51°20.836 2°53.106 20.5655 0.00969 0.054701 -1.766697
2008-05-23 12:39:29 51°20.635 2°53.037 20.5707 0.00969 0.0547 -1.731873
2008-05-23 12:40:29 51°20.435 2°52.959 20.5795 0.00969 0.054698 -1.731873
2008-05-23 12:41:29 51°20.234 2°52.897 20.5894 0.00969 0.054696 -1.731873
2008-05-23 12:42:29 51°20.032 2°52.833 20.5899 0.00969 0.054694 -1.731873
2008-05-23 12:43:29 51°19.833 2°52.767 20.5999 0.00969 0.054692 -1.731873
2008-05-23 12:44:29 51°19.632 2°52.703 20.6059 0.00969 0.05469 -1.731873
2008-05-23 12:45:29 51°19.433 2°52.632 20.6127 0.00969 0.054688 -1.731873
2008-05-23 12:46:29 51°19.232 2°52.57 20.6115 0.00969 0.054686 -1.731873
2008-05-23 12:47:29 51°19.032 2°52.492 20.6208 0.00969 0.054684 -1.731873
2008-05-23 12:48:29 51°18.833 2°52.416 20.6319 0.00969 0.054682 -1.731873
2008-05-23 12:49:29 51°18.63 2°52.39 20.6385 0.00969 0.05468 -1.731873
2008-05-23 12:50:29 51°18.425 2°52.395 20.641 0.00969 0.054678 -1.731873
2008-05-23 12:51:29 51°18.221 2°52.391 20.6588 0.00969 0.054676 -1.766697
2008-05-23 12:52:29 51°18.018 2°52.403 20.6593 0.00969 0.054674 -1.731873
2008-05-23 12:53:29 51°17.817 2°52.412 20.6653 0.00969 0.054672 -1.766697
2008-05-23 12:54:29 51°17.617 2°52.419 20.6585 0.00969 0.05467 -1.731873
2008-05-23 12:55:29 51°17.418 2°52.409 20.6881 0.00969 0.054668 -1.766697
2008-05-23 12:56:29 51°17.22 2°52.424 20.7 0.00969 0.054666 -1.731873
2008-05-23 12:57:29 51°17.024 2°52.497 20.7001 0.00969 0.054663 -1.766697
2008-05-23 12:58:29 51°16.83 2°52.585 20.7069 0.00969 0.054661 -1.731873
2008-05-23 12:59:29 51°16.636 2°52.687 20.7019 0.00969 0.054659 -1.766697
2008-05-23 13:00:29 51°16.446 2°52.813 20.7226 0.00969 0.054657 -1.766697
2008-05-23 13:01:29 51°16.262 2°52.958 20.711 0.00969 0.054655 -1.731873
2008-05-23 13:02:29 51°16.078 2°53.101 20.7317 0.00969 0.054653 -1.766697
2008-05-23 13:03:29 51°15.891 2°53.233 20.7351 0.00969 0.054651 -1.766697
2008-05-23 13:04:29 51°15.705 2°53.36 20.7386 0.00969 0.054649 -1.731873
2008-05-23 13:05:29 51°15.522 2°53.496 20.7465 0.00969 0.054647 -1.731873
2008-05-23 13:06:29 51°15.336 2°53.624 20.7587 0.00969 0.054644 -1.766697
2008-05-23 13:07:29 51°15.152 2°53.762 20.7523 0.00969 0.054642 -1.766697
2008-05-23 13:08:29 51°14.98 2°53.928 20.7658 0.00969 0.054641 -1.766697
2008-05-23 13:09:29 51°14.815 2°54.122 20.7975 0.00969 0.054639 -1.731873
2008-05-23 13:10:29 51°14.679 2°54.375 20.7924 0.00969 0.054638 -1.731873
2008-05-23 13:11:29 51°14.557 2°54.654 20.7911 0.00969 0.054637 -1.766697
2008-05-23 13:12:29 51°14.434 2°54.93 20.814 0.00969 0.054634 -1.766697
2008-05-23 13:13:29 51°14.301 2°55.187 20.7954 0.00969 0.054634 -1.766697
2008-05-23 13:14:33 51°14.176 2°55.368 20.8287 0.00969 0.054633 -1.766697
2008-05-23 13:15:33 51°14.09 2°55.452 20.8318 0.00969 0.054632 -1.731873
2008-05-23 13:16:33 51°14.033 2°55.511 20.8368 0.00969 0.05463 -1.731873
2008-05-23 13:17:33 51°13.939 2°55.577 20.8258 0.00969 0.054628 -1.731873
2008-05-23 13:18:33 51°13.853 2°55.625 20.8383 0.00969 0.054627 -1.766697
2008-05-23 13:19:33 51°13.78 2°55.678 20.8719 0.00969 0.054624 -1.731873